User: anonymous
Location: Mentone
(34.5413°N, 85.5351°W)
Time: 07:58:47
(UTC-05:00)
Language:

Cosmos 2150 Rocket - Orbit

View from above orbital plane
View from above orbital plane
View from above satellite
View from above satellite

Ground track
Ground track

The orbit data is extracted from the following two-line orbital elements,

1 21419U 91041B   14105.99726817  .00000292  00000-0  11377-3 0  5049
2 21419 074.0406 257.4481 0040284 107.1408 031.5879 14.33504310194483
Epoch (UTC): 15 April 2014 23:56:03
Eccentricity: 0.0040284
inclination: 74.0406°
perigee height: 751 km
apogee height: 809 km
right ascension of ascending node: 257.4481°
argument of perigee: 107.1408°
revolutions per day: 14.33504310
mean anomaly at epoch: 31.5879°
orbit number at epoch: 19448

The dashed part of the orbit path shows where the satellite is in the earth's shadow,  

DLR